Location: Banios
(43.0451°N, 0.2335°E)
Time: 12:34:39
(UTC+00:00)

Cosmos 1340 - Pass Details

Date: 25 January 2021
Orbit: 500 x 504 km, 81.2° (Epoch: 25 February)

Event Time Altitude Azimuth Distance (km) Brightness Sun altitude
Exits shadow 05:17:29 40° 11° (N) 757 3.5 -22.5°
Maximum altitude 05:18:40 66° 78° (ENE) 550 2.9 -22.3°
Drops below altitude 10° 05:22:24 10° 162° (SSE) 1,705 5.6 -21.6°
Sets 05:24:31 0° 165° (SSE) 2,584 6.5 -21.2°
